Regional Weather Roundup
Issued by NWS

Home | Current Version | Previous Version | Graphics & Text | Print | Product List | Glossary On
Versions: 1 2 3 4 5 6 7 8 9 10 11 12 13 14 15 16 17 18 19 20 21 22 23 24 25 26 27 28 29 30 31 32 33 34 35 36 37 38 39 40 41 42 43 44 45 46 47 48 49 50
155
ASUS44 KLIX 181605
RWRLA
LOUISIANA WEATHER ROUNDUP
NATIONAL WEATHER SERVICE NEW ORLEANS LA
1100 AM CDT THU SEP 18 2014

NOTE: "FAIR" INDICATES FEW OR NO CLOUDS BELOW 12,000 FEET WITH NO
      SIGNIFICANT WEATHER AND/OR OBSTRUCTIONS TO VISIBILITY.
      SKY/WX - SKY CONDITION AND SIGNIFICANT WEATHER.
      TMP - AIR TEMPERATURE.    DP   - DEWPOINT TEMPERATURE.
      RH  - RELATIVE HUMIDITY.  PRES - PRESSURE.
      HX  - HEAT INDEX.         WCI  - WIND CHILL INDEX.

*  THESE STATIONS ARE NOT NWS OR FAA STATIONS AND ARE NOT UNDER
   NWS QUALITY CONTROL.

LAZ040-048-061>063-065-066-069-181700-
SOUTHEAST LOUISIANA

CITY           SKY/WX    TMP DP  RH WIND       PRES   REMARKS
N.O. AUDUBON   NOT AVBL
N.O. INTL ARPT CLOUDY    85  81  88 E7        29.94F HX 100
N.O. LAKEFRONT PTSUNNY   85  74  69 NE6       29.95F
N.O. DOWNTOWN* FAIR      86  72  62 CALM      29.95S
SLIDELL        PTSUNNY   85  72  65 SE3       29.94F
BATON ROUGE    CLOUDY    80  74  81 E6        29.95S
BOOTHVILLE     PTSUNNY   85  72  65 E3        29.96R
BELLE CHASSE   PTSUNNY   85  72  65 E7        29.94S
BOGALUSA*      FAIR      84  72  67 CALM      29.96S
GALLIANO*      NOT AVBL
NEW ROADS*     FAIR      78  74  86 SE3       29.94F
GONZALES*      FAIR      83  78  84 NE3       29.94F
HAMMOND*       CLOUDY    84  72  65 CALM      29.96S
HOUMA*         PTSUNNY  N/A N/A N/A NE6       29.94F
PORT FOURCHON* SUNNY     82  72  69 E7        29.97S

$$

LAZ041-044-053-054-181700-
SOUTHWEST LOUISIANA

CITY           SKY/WX    TMP DP  RH WIND       PRES   REMARKS
LAKE CHARLES   CLOUDY    78  76  93 E6        29.93R
LAFAYETTE      CLOUDY    81  75  82 NE3       29.94F
PATTERSON      CLOUDY    81  75  83 E5        29.96F
SALT POINT       N/A     84  77  79 VRB3      29.93S
NEW IBERIA     CLOUDY    83  74  74 E6        29.94F
CHENAULT AIRPK PTSUNNY   79  75  89 E5        29.94S

$$

LAZ027-028-181700-
CENTRAL LOUISIANA

CITY           SKY/WX    TMP DP  RH WIND       PRES   REMARKS
FORT POLK      LGT RAIN  77  74  90 NE3       29.95R
ALEXANDRIA INT CLOUDY    81  73  76 CALM      29.93S
ALEXANDRIA     CLOUDY    82  73  74 CALM      29.95S

$$

LAZ001-002-181700-
NORTHWEST LOUISIANA

CITY           SKY/WX    TMP DP  RH WIND       PRES   REMARKS
SHREVEPORT     CLOUDY    80  72  76 VRB3      29.94S
BARKSDALE AFB  NOT AVBL
DTN SHREVEPORT CLOUDY    79  72  79 NE3       29.95R

$$

LAZ014-016-181700-
NORTHEAST LOUISIANA

CITY           SKY/WX    TMP DP  RH WIND       PRES   REMARKS
MONROE         CLOUDY    83  73  72 CALM      29.95S
TALLULAH       CLOUDY    85  73  67 CALM      29.95F

$$




USA.gov is the U.S. government's official web portal to all federal, state and local government web resources and services.